GSAT0205 (GALILEO 9)

Last updated on July 11, 2020, 5:25 a.m. UTC

1 40889U 15045A   20192.22035192 -.00000037  00000-0  00000+0 0  9992
2 40889  56.1336 281.4758 0002406   6.6220 353.4384  1.70475674 30057
UTC
Height (km)
Latitude
Longitude
Inclination
Orbital Period
UTC large
Height (km)
Speed (km/s)
/
Latitude / Longitude
Inclination (degrees)
Orbital Period (minutes)
Azimuth
Elevation
Range (km)
Doppler Factor
iOS Compass Heading
iOS Angle

Next 30 passes for location: Hong Kong

Rise time Rise Azimuth (degrees) Set time Set Azimuth (degrees) Duration Max altitude (degrees)

No matching passes for this satellites